Location: Brachbach
(49.1847°N, 9.7240°E)
Time: 22:56:44
(UTC+00:00)

FO-29 - Visible Passes

Search period start: 14 March 2026 00:00
Search period end: 24 March 2026 00:00
Orbit: 800 x 1320 km, 98.5° (Epoch: 14 March)

Date Brightness Start Highest point End Pass type
(mag) Time Alt. Az. Time Alt. Az. Time Alt. Az.
14 Mar 10.9 18:30:00 10° NE 18:36:00 25° E 18:42:13 10° SE visible
14 Mar 10.0 20:14:15 10° NNE 20:21:40 82° WNW 20:29:31 10° SSW visible
14 Mar 11.9 22:00:21 10° N 22:05:47 23° NW 22:11:29 10° W visible
15 Mar 12.2 04:49:17 10° E 04:52:48 16° NE 04:56:32 10° NNE visible
15 Mar 10.2 19:19:08 10° NNE 19:26:23 51° E 19:33:59 10° S visible
15 Mar 11.0 21:04:23 10° N 21:11:17 45° WNW 21:18:35 10° SW visible
15 Mar 12.5 22:51:46 10° NNW 22:54:39 13° NW 22:57:36 10° WNW visible
16 Mar 11.0 18:24:45 10° NE 18:30:39 24° E 18:36:44 10° SE visible
16 Mar 10.0 20:08:53 10° NNE 20:16:23 86° WNW 20:24:17 10° SSW visible
16 Mar 11.9 21:54:53 10° N 22:00:33 25° NW 22:06:29 10° WSW visible
17 Mar 12.3 04:44:02 10° E 04:47:30 16° NE 04:51:11 10° NNE visible
17 Mar 10.2 19:13:49 10° NNE 19:21:05 48° E 19:28:38 10° S visible
17 Mar 10.9 20:58:59 10° N 21:06:03 47° WNW 21:13:27 10° SW visible
17 Mar 12.5 22:46:06 10° NNW 22:49:27 14° NW 22:52:52 10° WNW visible
18 Mar 11.0 18:19:30 10° NE 18:25:18 23° E 18:31:13 10° SE visible
18 Mar 10.0 20:03:31 10° NNE 20:11:07 90° ENE 20:19:02 10° SSW visible
18 Mar 11.8 21:49:26 10° N 21:55:20 26° NW 22:01:28 10° WSW visible
19 Mar 12.3 04:38:49 10° ENE 04:42:14 15° NE 04:45:50 10° NNE visible
19 Mar 10.3 19:08:30 10° NNE 19:15:47 46° E 19:23:15 10° SSE visible
19 Mar 10.8 20:53:36 10° N 21:00:48 50° WNW 21:08:18 10° SW visible
19 Mar 12.5 22:40:30 10° NNW 22:44:14 15° NW 22:48:03 10° WNW visible
20 Mar 11.1 18:14:18 10° NE 18:19:57 22° E 18:25:40 10° SE visible
20 Mar 10.0 19:58:10 10° NNE 20:05:52 86° ESE 20:13:46 10° SSW visible
20 Mar 11.8 21:44:00 10° N 21:50:07 28° NW 21:56:25 10° WSW visible
21 Mar 12.4 04:33:36 10° ENE 04:36:58 15° NE 04:40:30 10° NNE visible
21 Mar 10.4 19:03:11 10° NNE 19:10:28 43° E 19:17:52 10° SSE visible
21 Mar 10.8 20:48:13 10° N 20:55:34 53° WNW 21:03:07 10° SW visible
21 Mar 12.4 22:34:58 10° NNW 22:39:02 16° NW 22:43:11 10° WNW visible
22 Mar 11.2 18:09:06 10° NE 18:14:35 20° E 18:20:05 10° SE visible
22 Mar 10.0 19:52:50 10° NNE 20:00:36 82° ESE 20:08:29 10° SSW visible
22 Mar 11.7 21:38:35 10° N 21:44:54 29° NW 21:51:21 10° WSW visible
23 Mar 12.4 04:28:24 10° ENE 04:31:42 14° NE 04:35:09 10° NNE visible
23 Mar 10.5 18:57:55 10° NNE 19:05:10 41° E 19:12:27 10° SSE visible
23 Mar 10.7 20:42:51 10° N 20:50:20 56° WNW 20:57:55 10° SW visible
23 Mar 12.4 22:29:27 10° N 22:33:50 17° NW 22:38:17 10° W visible
